Regional Weather Roundup
Issued by NWS

Home | Current Version | Previous Version | Text Only | Print | Product List | Glossary Off
Versions: 1 2 3 4 5 6 7 8 9 10 11 12 13 14 15 16 17 18 19 20 21 22 23 24 25 26 27 28 29 30 31 32 33 34 35 36 37 38 39 40 41 42 43 44 45 46 47 48 49 50

000
ASUS43 KFSD 200402
RWRSD

WEATHER ROUNDUP FOR SOUTH DAKOTA
NATIONAL WEATHER SERVICE SIOUX FALLS SD
1000 PM CST SUN NOV 19 2017

NOTE: "FAIR" INDICATES FEW OR NO CLOUDS BELOW 12,000 FEET WITH NO
SIGNIFICANT WEATHER AND/OR OBSTRUCTIONS TO VISIBILITY.


SDZ001>005-009-010-012>017-200500-
NORTHWEST AND NORTH CENTRAL SOUTH DAKOTA

CITY           SKY/WX    TMP DP  RH WIND       PRES   REMARKS
BUFFALO          N/A     35  22  58 W6        29.61F
FAITH            N/A     32  22  66 S16       29.67F WCI  21
MOBRIDGE       CLOUDY    32  25  75 SE6       29.67F WCI  26
$$

SDZ012>016-024>037-041>051-057-063-072>074-200500-
SOUTHWEST AND SOUTH CENTRAL SOUTH DAKOTA

CITY           SKY/WX    TMP DP  RH WIND       PRES   REMARKS
RAPID CTY ARPT CLEAR     34  17  50 W5        29.71F WCI  30
PIERRE         CLOUDY    32  24  72 CALM      29.71F
CUSTER         CLOUDY    34  13  41 W6        29.78F WCI  29
ELLSWORTH AFB  CLEAR     37  17  44 SW8       29.69F
PHILIP         CLOUDY    32  22  66 CALM      29.72F
PINE RIDGE     CLOUDY    29  17  61 SW12      29.79F WCI  19
SPEARFISH      FAIR      45  10  24 CALM      29.72S
WINNER         FAIR      45  21  38 S10       29.76F
$$

SDZ004>011-016>023-039-040-200500-
NORTHEAST SOUTH DAKOTA

CITY           SKY/WX    TMP DP  RH WIND       PRES   REMARKS
ABERDEEN       CLOUDY    22  18  85 SW7       29.73F WCI  13
WATERTOWN      CLOUDY    35  25  66 SW12      29.73F WCI  27
BROOKINGS      CLOUDY    35  24  64 S12       29.77F WCI  27
SISSETON         N/A     34  24  67 SW8       29.72F WCI  27
$$

SDZ017-020-022-023-036>040-048>070-200500-
SOUTHEAST SOUTH DAKOTA

CITY           SKY/WX    TMP DP  RH WIND       PRES   REMARKS
SIOUX FALLS    MOCLDY    40  26  57 SW6       29.80F
HURON          CLOUDY    33  24  69 SE6       29.75F WCI  28
CHAMBERLAIN    CLOUDY    35  23  61 S5        29.76F
MITCHELL       PTCLDY    36  25  64 S10       29.77F
YANKTON        CLOUDY    42  24  49 S7        29.82F
$$

ABBREVIATIONS USED IN REMARKS
   TC - TEMPERATURE IN CELSIUS
  WCI - WIND CHILL INDEX
   HX - HEAT INDEX
  VSB - VISIBILITY





USA.gov is the U.S. government's official web portal to all federal, state and local government web resources and services.